Location: Peebles
(55.6412°N, 3.1714°W)
Time: 08:25:15
(UTC+01:00)

Cosmos 2297 Rocket - Pass Details

Date: 26 September 2021
Orbit: 841 x 842 km, 71.0° (Epoch: 20 October)

Event Time Altitude Azimuth Distance (km) Brightness Sun altitude
Rises 21:31:25 0° 325° (NW) 3,409 6.5 -21.2°
Reaches altitude 10° 21:33:54 10° 328° (NNW) 2,471 5.5 -21.5°
Maximum altitude 21:39:33 65° 51° (NE) 928 2.2 -22.2°
Enters shadow 21:40:55 49° 107° (ESE) 1,081 2.3 -22.3°
